Preview of NWS' New Version of Forecast
This preview is not operational and should not be used for support decisions.
Latest weather observations around

Bremerton, Bremerton National Airport (KPWT)

Using International System of Units (Switch to English Units)
Date/ Time (PDT) Wind (kph) Vis. (km) Weather Sky Cond. Temp (°C) Rel. Humidity Wind Chill (°C) Heat Index (°C) Pressure Precip. (cm)
Air Dwpt 6 hour Altimeter (hPa) Sea level (hPa) 1 hr 3 hr 6 hr
Max Min
Jun 21 15:56 S 11 16.09 Cloudy OVC021 17 12     72%     1021        
Jun 21 14:56 SW 11 16.09 Cloudy OVC021 18 12     70%     1021 1022.4      
Jun 21 13:56 SSW 18 16.09 Cloudy OVC019 17 12     75%     1021 1022.6      
Jun 21 12:56 SSW 15 16.09 Cloudy OVC017 16 12     78%     1020.7 1022.4      
Jun 21 11:56 S 13 16.09 Cloudy OVC019 16 12     75%     1020.7 1022.1      
Jun 21 11:04 SSW 18 16.09 Cloudy BKN015 OVC020 15 12     82%     1020.3        
Jun 21 10:56 SSW 15 16.09 Cloudy BKN012 OVC020 15 12     83%     1020.3 1022      
Jun 21 09:56 SSW 18 16.09 Cloudy OVC010 14 12     87%     1020 1021.4      
Jun 21 09:35 SSW 18 16.09 Cloudy OVC010 14 12     88%     1020        
Jun 21 08:56 S 18 16.09 Cloudy BKN006 OVC014 14 12     89%     1019.7 1021.1      
Jun 21 07:56 SW 15 16.09 Cloudy OVC008 13 12     93%     1019.3 1020.5      
Jun 21 06:56 SSW 17 16.09 Cloudy OVC008 13 12     90%     1019 1020.1      
Jun 21 06:05 SSW 17 16.09 Cloudy OVC008 13 12     94%     1018.6        
Jun 21 05:56 SSW 13 16.09 Cloudy OVC010 13 12     90%     1018.6 1019.7      
Jun 21 05:20 SSW 13 16.09 Cloudy OVC010 14 12     88%     1018        
Jun 21 04:56 SSW 18 16.09 Cloudy OVC008 14 12     87%     1018 1019.1      
Jun 21 04:39 SW 17 16.09 Cloudy OVC008 14 12     88%     1017.6        
Jun 21 03:56 SSW 17 16.09 Cloudy OVC010 14 12     87%     1017.3 1018.5      
Jun 21 02:56 SSW 18 16.09 Cloudy OVC008 14 12     89%     1016.9 1018      
Jun 21 00:56 SSW 18 16.09 Cloudy OVC008 14 12     89%     1016.3 1017.5      
Jun 20 23:56 SSW 17 16.09 Cloudy OVC008 14 12     89%     1015.6 1016.6      
Jun 20 23:35 SSW 11 16.09 Mostly Cloudy BKN008 13 12     94%     1015.2        
Jun 20 23:25 SSW 13 16.09 Partly Cloudy SCT008 14 13     94%     1014.9        
Jun 20 22:56 SSW 11 16.09 Clear CLR 14 13     90%     1014.9 1016      
Jun 20 21:56 SSW 13 16.09 Clear CLR 17 13     80%     1014.2 1015.4      
Jun 20 20:56 SW 13 16.09 Clear CLR 21 15     70%     1013.6 1014.6      
Jun 20 19:56 ENE 8 16.09 Clear CLR 26 13     45%   25 1012.9 1013.9      
Jun 20 18:56 NE 18 16.09 Clear CLR 27 12     39%   27 1012.9        
Jun 20 17:56 NE 17 16.09 Partly Cloudy SCT120 26 15     50%   26 1012.5        
Jun 20 16:56   16.09 Clear CLR 27 16     49%   28 1012.5 1013.7      
Jun 20 15:56 NE 15 16.09 Clear CLR 29 17     49%   29 1012.5 1013.6      
Jun 20 14:56 Calm 16.09 Clear CLR 31 13     34%   30 1012.9 1013.9      
Jun 20 13:56 WSW 9 16.09 Clear CLR 29 14     39%   29 1013.6 1014.5      
Jun 20 12:56 Calm 16.09 Clear CLR 28 17     49%   29 1013.9 1014.9      
Jun 20 11:56 5 16.09 Clear CLR 28 16     49%   28 1014.6 1015.4      
Jun 20 10:56 SE 5 16.09 Clear CLR 24 16     60%   24 1014.9 1015.9      
Jun 20 09:56 E 8 16.09 Clear CLR 23 16     62%   23 1014.9 1016.1      
Jun 20 08:56 Calm 16.09 Clear CLR 23 14     59%   23 1015.2 1016.1      
Jun 20 07:56 Calm 16.09 Mostly Cloudy BKN110 19 14     73%     1015.2 1016.2      
Jun 20 06:56 Calm 16.09 Clear CLR 19 14     73%     1015.2 1016.2      
Jun 20 05:56 SSW 8 16.09 Clear CLR 16 13     86%     1014.9 1016      
Jun 20 04:56 Calm 16.09 Clear CLR 16 14     87%     1014.9 1015.8      
Jun 20 03:56 Calm 16.09 Clear CLR 17 14     84%     1015.2        
Jun 20 02:56 NNE 5 16.09 Partly Cloudy SCT120 18 14     78%     1015.2 1016.4      
Jun 20 01:56 NNE 5 16.09 Clear CLR 19 14     73%     1015.6 1016.6      
Jun 20 00:56 Calm 16.09 Clear CLR 19 14     71%     1015.9 1016.9      
Jun 19 23:56 E 5 16.09 Clear CLR 19 14     73%     1016.3        
Jun 19 22:56 Calm 16.09 Clear   18 14     76%     1016.3        
Jun 19 21:56 Calm 16.09 Clear CLR 21 14     68%     1016.3        
Jun 19 20:56 NE 5 16.09 Clear CLR 23 14     56%   23 1015.9        
Jun 19 19:56 NE 13 16.09 Clear CLR 26 14     50%   26 1015.9        
Jun 19 18:56 WSW 8 16.09 Clear CLR 28 15     44%   28 1015.2 1016.5      
Jun 19 17:56 Calm 16.09 Clear CLR 28 15     44%   28 1015.6 1016.7      
Jun 19 16:56 W 8 16.09 Clear CLR 28 15     44%   28 1016.3 1017.3      
Jun 19 15:56 5 16.09 Clear CLR 27 14     45%   27 1016.6 1017.9      
Jun 19 14:56 8 16.09 Clear CLR 27 14     45%   27 1016.9 1018.2      
Jun 19 13:56 WNW 9 16.09 Clear CLR 25 14     52%   25 1017.3 1018.6      
Jun 19 12:56 WNW 8 16.09 Clear CLR 23 13     55%   23 1017.6        
Jun 19 11:56 5 16.09 Clear CLR 21 13     61%     1018        
Jun 19 10:56 8 16.09 Clear CLR 19 13     68%     1018.3        
Jun 19 09:56 8 16.09 Clear CLR 18 13     75%     1018.6        
Jun 19 09:40 WSW 9 16.09 Partly Cloudy SCT012 17 13     77%     1018.6        
Jun 19 09:24 9 16.09 Mostly Cloudy BKN012 16 13     82%     1018.6        
Jun 19 08:56 SSW 11 16.09 Partly Cloudy SCT010 16 12     80%     1018.6        
Jun 19 08:22 SW 13 16.09 Cloudy OVC010 15 12     82%     1019        
Jun 19 07:56 SW 9 16.09 Cloudy OVC008 14 12     87%     1018.6        
Jun 19 06:56 SW 9 16.09 Cloudy OVC006 14 13     93%     1018.6 1019.9      
Jun 19 05:56 SW 11 16.09 Cloudy OVC006 14 13     93%     1018.3 1019.5      
Jun 19 03:56 SSW 11 16.09 Cloudy OVC006 14 13     93%     1017.6 1018.8      
Jun 19 02:56 SSW 13 16.09 Clear   14 13     90%     1017.3 1018.4      
Jun 19 01:56 SW 15 16.09 Cloudy OVC008 14 13     93%     1017.3 1018.3      
Jun 19 00:56 SSW 5 16.09 Cloudy OVC008 14 13     93%     1017.6        
Jun 19 00:37 SSW 8 16.09 Mostly Cloudy BKN010 14 13     94%     1017.3        
Jun 18 23:56 SSW 8 16.09 Clear CLR 14 13     93%     1016.9 1018.3      
Jun 18 22:56 SW 11 16.09 Clear CLR 14 13     90%     1016.6 1017.8      
Jun 18 21:56 SSW 13 16.09 Clear CLR 16 13     83%     1015.9 1017.3      
Jun 18 20:56 SSW 13 16.09 Clear CLR 19 14     75%     1015.2 1016.5      
Jun 18 19:56 SW 17 16.09 Clear CLR 22 15     64%   22 1014.9 1016      
Jun 18 18:56 WSW 17 16.09 Clear CLR 25 16     56%   25 1014.6 1015.6      
Jun 18 17:56 SW 18 16.09 Clear CLR 28 15     46%   28 1014.2        
Jun 18 16:56 SW 18 16.09 Clear CLR 29 16     43%   29 1013.9        
Jun 18 15:56 SSW 9 16.09 Clear CLR 29 14     40%   29 1013.9        
May 15 09:04 SW 13 16.09 Cloudy OVC007 13 11     88%     1014.6        
May 14 08:56 Calm 16.09 Clear CLR 17 12     75%     1014.9 1016.4      
May 14 07:56 SSW 9 16.09 Clear CLR 14 12     87%     1015.2        
Notice The following observation data may not be complete
May 13 20:56 Calm 16.09 Clear CLR   11      %     1012.5        
May 13 12:56 NNE 11 16.09 Clear CLR 24 13     50%   24 1014.2        
May 13 02:56 Calm 16.09 Clear CLR 8 7     90%     1014.9 1016.4      
May 12 17:56 ENE 15 16.09 Clear CLR 23 9     40%   23 1015.6        
May 12 01:56 Calm 16.09 Clear CLR 7 7     100%     1022.7        
May 12 00:56 Calm 16.09 Clear CLR 8 8     97%     1022.7        
May 11 15:56 Calm 16.09 Mostly Cloudy BKN033 17 9     60%     1023.7        
May 11 12:56 SSE 8 16.09 Cloudy BKN024 OVC028 14 9     74%     1025.1 1027      
May 11 07:56 Calm 16.09 Cloudy BKN019 OVC027 9 8     93%     1025.1 1026.8      
Jun 11 09:56 SSW 5 16.09 Cloudy OVC005 11 9     89%     1018        
Jun 10 19:56 NNE 8 16.09 Clear CLR 17 7     53%     1012.5 1014.2      
Jun 10 15:56 WSW 5 16.09 Cloudy SCT046 OVC060 16 8     58%     1011.2        
Notice The following observation data may not be complete
Jun 10 08:40   16.09 Cloudy OVC006          %              
Jun 10 02:15 WSW 11 16.09 Cloudy OVC004 9 8     93% 7   1011.5        
Jun 09 16:56 SSW 13 16.09 Light Rain FEW026 14 8     65%     1010.2 1012.1 0   0
Jun 09 04:36 Calm 16.09 Cloudy SCT021 BKN028 OVC048 9 8     93%     1013.6        
Jun 08 09:48 SSW 15 16.09 Light Rain BKN006 OVC030 13 12     94%     1005.1   0    
Jun 08 04:56 SW 5 16.09 Light Rain SCT002 BKN010 OVC043 11 11     100%     1003.7   0   0
Jun 07 09:56 Calm 16.09 Clear   19 9     52%     1009.2        
Jun 06 02:56 E 8 16.09 Clear   12 6     66%     1016.9        
Jun 05 16:56 ENE 15 16.09 Clear   22 4     31%   21 1018.3